Location: Unspecified
(0.0000°N, 0.0000°E)
Time: 15:54:18
(UTC+00:00)

STARLINK-32153 - Visible Passes

Search period start: 15 June 2025 00:00
Search period end: 25 June 2025 00:00
Orbit: 474 x 476 km, 53.2° (Epoch: 15 June)

Date Brightness Start Highest point End Pass type
(mag) Time Alt. Az. Time Alt. Az. Time Alt. Az.
22 Jun 4.5 19:44:08 10° SW 19:47:40 43° WNW 19:50:06 18° N visible
23 Jun 4.0 19:14:31 10° SW 19:18:09 56° WNW 19:21:46 10° NNE visible
24 Jun 3.5 18:44:57 10° SW 18:48:38 74° NW 18:52:18 10° NNE visible
